Weather History for Little Rock AFB, AR

Change the Weather History Date:

Thursday, April 4, 2013

  Actual Average Record
Temperature  
Mean Temperature 44 °F -  
Max Temperature 47 °F 68 °F 84 °F (1988)
Min Temperature 40 °F 46 °F 26 °F (1987)
Degree Days  
Heating Degree Days 21    
Moisture  
Dew Point 38 °F    
Average Humidity 78    
Maximum Humidity 100    
Minimum Humidity 52    
Precipitation  
Precipitation 0.40 in - - ()
Sea Level Pressure  
Sea Level Pressure 30.07 in    
Wind  
Wind Speed 6 mph (NW)    
Max Wind Speed 9 mph    
Max Gust Speed -    
Visibility 10 miles    
Events Rain    
Averages and records for this station are not official NWS values.
T = Trace of Precipitation, MM = Missing Value Source: NWS Daily Summary

Daily Weather History Graph

Daily Weather History Graph

Search for Another Location

Airport:

Trip Planner

Search our weather history database for the weather conditions in past years. The results will help you decide how hot, cold, wet, or windy it might be!

Date:

Astronomy

Apr. 04, 2013 Rise Set
Actual Time 6:50 AM CDT 7:32 PM CDT
Civil Twilight 6:25 AM CDT 7:58 PM CDT
Nautical Twilight 5:55 AM CDT 8:28 PM CDT
Astronomical Twilight 5:24 AM CDT 8:59 PM CDT
Moon 3:04 AM CDT (4/4) 2:03 PM CDT (4/4)
Length of Visible Light 13h 32m
Length of Day
12h 41m
Waning Crescent, 33% of the Moon is Illuminated
Apr 4
Waning Crescent
Apr 10
New
Apr 18
First Quarter
Apr 25
Full
May 2
Last Quarter

Hourly Weather History & Observations

Time (CDT) Temp. Windchill Dew Point Humidity Pressure Visibility Wind Dir Wind Speed Gust Speed Precip Events Conditions
12:58 AM 47.1 °F - 31.6 °F 55% 30.14 in 10.0 mi NE 9.2 mph - N/A   Overcast
1:58 AM 47.5 °F - 30.4 °F 52% 30.12 in 10.0 mi NNE 8.1 mph - N/A   Overcast
2:58 AM 47.3 °F - 30.7 °F 53% 30.10 in 10.0 mi NE 6.9 mph - N/A   Overcast
3:58 AM 46.4 °F 45.2 °F 32.0 °F 57% 30.08 in 10.0 mi NE 3.5 mph - N/A   Mostly Cloudy
4:58 AM 46.4 °F 44.3 °F 31.1 °F 55% 30.07 in 10.0 mi NNW 4.6 mph - N/A   Mostly Cloudy
5:08 AM 46.4 °F 44.3 °F 32.0 °F 57% 30.05 in 10.0 mi North 4.6 mph - N/A   Mostly Cloudy
5:13 AM 46.4 °F 44.3 °F 32.0 °F 57% 30.05 in 10.0 mi North 4.6 mph - N/A   Overcast
5:17 AM 46.4 °F 45.2 °F 32.0 °F 57% 30.06 in 10.0 mi North 3.5 mph - N/A Rain Light Rain
5:22 AM 46.4 °F 44.3 °F 32.0 °F 57% 30.06 in 10.0 mi NNW 4.6 mph - N/A Rain Light Rain
5:51 AM 44.6 °F 42.2 °F 32.0 °F 61% 30.05 in 10.0 mi NNW 4.6 mph - N/A   Overcast
5:58 AM 45.3 °F 43.0 °F 32.9 °F 62% 30.06 in 10.0 mi North 4.6 mph - 0.00 in   Overcast
6:58 AM 46.2 °F 42.7 °F 31.1 °F 56% 30.07 in 10.0 mi North 6.9 mph - N/A   Overcast
7:58 AM 46.6 °F - 30.0 °F 53% 30.09 in 10.0 mi NNE 4.6 mph - N/A   Overcast
8:08 AM 46.4 °F 44.3 °F 32.0 °F 57% 30.08 in 10.0 mi North 4.6 mph - N/A   Overcast
8:56 AM 46.4 °F 45.2 °F 30.2 °F 53% 30.10 in 10.0 mi NNW 3.5 mph - N/A   Light Drizzle
8:58 AM 46.4 °F 43.5 °F 30.2 °F 53% 30.12 in 10.0 mi NW 5.8 mph - N/A   Light Drizzle
9:58 AM 42.1 °F 40.2 °F 36.9 °F 82% 30.14 in 9.0 mi NNW 3.5 mph - 0.06 in Rain Light Rain
10:58 AM 41.9 °F 36.9 °F 37.6 °F 85% 30.12 in 9.0 mi North 8.1 mph - 0.04 in Rain Light Rain
11:58 AM 42.3 °F 37.9 °F 38.1 °F 85% 30.12 in 7.0 mi Variable 6.9 mph - 0.06 in Rain Light Rain
12:58 PM 43.0 °F 39.5 °F 39.2 °F 86% 30.09 in 10.0 mi NW 5.8 mph - 0.06 in Rain Light Rain
1:28 PM 42.8 °F 39.3 °F 39.2 °F 87% 30.06 in 10.0 mi NW 5.8 mph - N/A Rain Light Rain
1:43 PM 44.6 °F 41.4 °F 39.2 °F 81% 30.06 in 10.0 mi NW 5.8 mph - N/A Rain Light Rain
1:58 PM 43.9 °F 39.9 °F 39.6 °F 85% 30.06 in 10.0 mi NNW 6.9 mph - 0.03 in Rain Light Rain
2:18 PM 44.6 °F 40.2 °F 41.0 °F 87% 30.05 in 10.0 mi NW 8.1 mph - N/A Rain Light Rain
2:33 PM 44.6 °F 41.4 °F 39.2 °F 81% 30.05 in 10.0 mi NNW 5.8 mph - N/A Rain Light Rain
2:58 PM 44.2 °F 42.7 °F 40.3 °F 86% 30.06 in 10.0 mi Variable 3.5 mph - 0.02 in Rain Light Rain
3:08 PM 44.6 °F 42.2 °F 41.0 °F 87% 30.05 in 10.0 mi NW 4.6 mph - N/A Rain Light Rain
3:13 PM 44.6 °F 42.2 °F 39.2 °F 81% 30.05 in 10.0 mi NW 4.6 mph - N/A Rain Light Rain
3:18 PM 44.6 °F 42.2 °F 39.2 °F 81% 30.05 in 10.0 mi NNW 4.6 mph - N/A Rain Light Rain
3:53 PM 44.6 °F 41.4 °F 41.0 °F 87% 30.05 in 10.0 mi WNW 5.8 mph - N/A Rain Light Rain
3:58 PM 44.8 °F 41.6 °F 40.5 °F 85% 30.06 in 10.0 mi WNW 5.8 mph - 0.03 in Rain Light Rain
4:58 PM 44.8 °F 41.0 °F 41.9 °F 90% 30.06 in 6.0 mi NW 6.9 mph - 0.06 in Rain Light Rain
5:18 PM 44.6 °F 42.2 °F 41.0 °F 87% 30.05 in 9.0 mi NW 4.6 mph - N/A Rain Light Rain
5:58 PM 45.0 °F 42.6 °F 42.8 °F 92% 30.06 in 10.0 mi West 4.6 mph - 0.03 in Rain Light Rain
6:13 PM 44.6 °F 41.4 °F 42.8 °F 93% 30.05 in 10.0 mi WSW 5.8 mph - N/A Rain Light Rain
6:23 PM 46.4 °F 42.9 °F 44.6 °F 93% 30.05 in 10.0 mi WSW 6.9 mph - N/A Rain Light Rain
6:36 PM 46.4 °F 42.9 °F 44.6 °F 93% 30.05 in 10.0 mi West 6.9 mph - N/A   Mostly Cloudy
6:43 PM 46.4 °F 42.9 °F 44.6 °F 93% 30.05 in 10.0 mi West 6.9 mph - N/A   Light Drizzle
6:56 PM 46.4 °F 44.3 °F 44.6 °F 93% 30.05 in 10.0 mi West 4.6 mph - N/A   Overcast
6:58 PM 46.4 °F 44.3 °F 44.6 °F 93% 30.06 in 10.0 mi West 4.6 mph - 0.01 in   Overcast
7:58 PM 45.9 °F - 44.4 °F 95% 30.06 in 10.0 mi West 2.3 mph - N/A   Overcast
8:58 PM 45.3 °F - 45.0 °F 99% 30.08 in 9.0 mi Calm Calm - N/A   Overcast
9:59 PM 45.7 °F 44.4 °F 44.1 °F 94% 30.09 in 9.0 mi West 3.5 mph - N/A   Overcast
10:58 PM 43.3 °F - 42.4 °F 97% 30.11 in 10.0 mi West 1.2 mph - N/A   Clear
11:28 PM 41.0 °F 39.0 °F 41.0 °F 100% 30.10 in 3.0 mi Variable 3.5 mph - N/A   Clear
11:58 PM 40.8 °F 38.8 °F 40.5 °F 99% 30.12 in 5.0 mi WNW 3.5 mph - N/A   Clear